EZY6EC LPFR-LPMA

Flight info

Callsign EZY6EC
Flight time 0h 55m
Altitude 35000
Route IXOLI DCT NARTA DCT GALPA DCT RAKUN
Aircraft A321/M-SDE3FGHIRWY/LB1

Departure

Time 2026-05-06 16:59
Airport Faro - Gago Coutinho International Airport (LPFR)

Arrival

Time 2026-05-06 17:54
Airport Cristiano Ronaldo International Airport (LPMA)
Time Latitude Longitude Altitude Speed Heading
2026-05-06 16:41 37.01751 -7.96973 24 ft 0 kts 190°
2026-05-06 16:50 37.01755 -7.96972 24 ft 2 kts 189°
2026-05-06 16:50 37.01770 -7.96973 24 ft 2 kts 162°
2026-05-06 16:50 37.01779 -7.96978 24 ft 2 kts 150°
2026-05-06 16:51 37.01794 -7.96994 25 ft 2 kts 123°
2026-05-06 16:51 37.01800 -7.97011 25 ft 2 kts 103°
2026-05-06 16:51 37.01802 -7.97029 25 ft 2 kts 99°
2026-05-06 16:51 37.01804 -7.97039 25 ft 0 kts 102°
2026-05-06 16:54 37.01804 -7.97037 25 ft 1 kts 101°
2026-05-06 16:54 37.01796 -7.96977 25 ft 9 kts 98°
2026-05-06 16:54 37.01774 -7.96910 24 ft 8 kts 149°
2026-05-06 16:55 37.01709 -7.96905 23 ft 9 kts 180°
2026-05-06 16:55 37.01662 -7.96842 22 ft 11 kts 102°
2026-05-06 16:55 37.01646 -7.96736 22 ft 13 kts 101°
2026-05-06 16:55 37.01630 -7.96618 22 ft 14 kts 98°
2026-05-06 16:56 37.01609 -7.96467 22 ft 19 kts 100°
2026-05-06 16:56 37.01586 -7.96303 21 ft 19 kts 99°
2026-05-06 16:56 37.01566 -7.96168 19 ft 14 kts 103°
2026-05-06 16:56 37.01512 -7.96116 19 ft 9 kts 192°
2026-05-06 16:57 37.01469 -7.96179 19 ft 9 kts 251°
2026-05-06 16:57 37.01458 -7.96254 21 ft 8 kts 256°
2026-05-06 16:57 37.01440 -7.96319 22 ft 7 kts 249°
2026-05-06 16:57 37.01424 -7.96387 22 ft 8 kts 252°
2026-05-06 16:58 37.01428 -7.96489 22 ft 24 kts 279°
2026-05-06 16:58 37.01498 -7.97008 19 ft 95 kts 279°
2026-05-06 16:58 37.01656 -7.98086 58 ft 149 kts 276°
2026-05-06 16:58 37.01838 -7.99378 580 ft 157 kts 278°
2026-05-06 16:59 37.02026 -8.00726 1254 ft 159 kts 281°
2026-05-06 16:59 37.02216 -8.02059 1848 ft 162 kts 283°
2026-05-06 16:59 37.02432 -8.03500 2259 ft 176 kts 284°
2026-05-06 16:59 37.02671 -8.05074 2668 ft 191 kts 284°
2026-05-06 17:00 37.02923 -8.06763 3095 ft 206 kts 283°
2026-05-06 17:00 37.03065 -8.08637 3471 ft 227 kts 274°
2026-05-06 17:00 37.02940 -8.10712 3819 ft 251 kts 263°
2026-05-06 17:00 37.02578 -8.12867 4493 ft 258 kts 261°
2026-05-06 17:01 37.02309 -8.15086 5270 ft 260 kts 265°
2026-05-06 17:01 37.02091 -8.17369 5847 ft 272 kts 265°
2026-05-06 17:01 37.01884 -8.19733 6494 ft 281 kts 265°
2026-05-06 17:01 36.99767 -8.45877 14629 ft 283 kts 263°
2026-05-06 17:02 36.95955 -8.85493 20047 ft 294 kts 258°
2026-05-06 17:02 36.91880 -9.04027 21579 ft 304 kts 240°
2026-05-06 17:02 36.90827 -9.06335 21792 ft 315 kts 242°
2026-05-06 17:02 36.89835 -9.08858 22007 ft 326 kts 246°
2026-05-06 17:03 36.88959 -9.11508 22214 ft 336 kts 249°
2026-05-06 17:03 36.88156 -9.14277 22424 ft 347 kts 251°
2026-05-06 17:03 36.87386 -9.17186 22626 ft 358 kts 252°
2026-05-06 17:03 36.86636 -9.20196 22830 ft 367 kts 253°
2026-05-06 17:04 36.85901 -9.23261 23178 ft 373 kts 253°
2026-05-06 17:04 36.82907 -9.36094 25093 ft 375 kts 254°
2026-05-06 17:04 36.71442 -9.86282 29139 ft 380 kts 255°
2026-05-06 17:04 36.59617 -10.36965 31358 ft 387 kts 255°
2026-05-06 17:05 36.47345 -10.88449 33512 ft 392 kts 254°
2026-05-06 17:05 36.34744 -11.40086 35133 ft 396 kts 255°
2026-05-06 17:05 36.22636 -11.88812 35167 ft 403 kts 255°
2026-05-06 17:06 36.20955 -11.95553 35044 ft 417 kts 255°
2026-05-06 17:06 36.19239 -12.02398 35018 ft 418 kts 255°
2026-05-06 17:07 36.17507 -12.09260 35006 ft 418 kts 255°
2026-05-06 17:07 36.15781 -12.16080 35002 ft 418 kts 255°
2026-05-06 17:08 36.14038 -12.22953 35003 ft 418 kts 255°
2026-05-06 17:08 36.12289 -12.29820 35003 ft 419 kts 255°
2026-05-06 17:09 36.10540 -12.36671 35002 ft 419 kts 256°
2026-05-06 17:09 36.08794 -12.43486 35005 ft 419 kts 256°
2026-05-06 17:09 36.07910 -12.46952 34685 ft 419 kts 256°
2026-05-06 17:10 36.07016 -12.50346 34129 ft 425 kts 254°
2026-05-06 17:10 36.05807 -12.53711 33227 ft 438 kts 244°
2026-05-06 17:10 36.04141 -12.56917 32479 ft 440 kts 239°
2026-05-06 17:10 36.02377 -12.59934 31343 ft 444 kts 237°
2026-05-06 17:11 36.00460 -12.62942 29713 ft 449 kts 235°
2026-05-06 17:11 35.98427 -12.65808 28127 ft 451 kts 231°
2026-05-06 17:11 35.96281 -12.68585 26311 ft 457 kts 231°
2026-05-06 17:11 35.94092 -12.71448 24205 ft 464 kts 231°
2026-05-06 17:12 35.91930 -12.74321 22864 ft 455 kts 231°
2026-05-06 17:12 35.89820 -12.77094 21724 ft 443 kts 231°
2026-05-06 17:12 35.87756 -12.79805 20679 ft 429 kts 230°
2026-05-06 17:12 35.85768 -12.82417 19672 ft 417 kts 231°
2026-05-06 17:13 35.83836 -12.84959 19080 ft 394 kts 231°
2026-05-06 17:13 35.82023 -12.87381 18909 ft 372 kts 231°
2026-05-06 17:13 35.80315 -12.89707 18909 ft 366 kts 232°
2026-05-06 17:13 35.78614 -12.92023 18907 ft 365 kts 232°
2026-05-06 17:14 35.76910 -12.94331 18906 ft 365 kts 231°
2026-05-06 17:14 35.75210 -12.96621 18928 ft 366 kts 232°
2026-05-06 17:14 35.73466 -12.98967 19277 ft 371 kts 231°
2026-05-06 17:14 35.71713 -13.01316 19858 ft 372 kts 231°
2026-05-06 17:15 35.69971 -13.03644 20351 ft 375 kts 232°
2026-05-06 17:15 35.68214 -13.05986 20796 ft 378 kts 232°
2026-05-06 17:15 35.66412 -13.08391 21236 ft 382 kts 232°
2026-05-06 17:15 35.64616 -13.10783 21676 ft 385 kts 232°
2026-05-06 17:16 35.62787 -13.13218 22112 ft 388 kts 232°
2026-05-06 17:16 35.60957 -13.15653 22524 ft 391 kts 232°
2026-05-06 17:16 35.59116 -13.18102 22915 ft 395 kts 232°
2026-05-06 17:16 35.57254 -13.20575 23311 ft 398 kts 232°
2026-05-06 17:17 35.55353 -13.23097 23747 ft 400 kts 232°
2026-05-06 17:17 35.53469 -13.25595 24148 ft 403 kts 232°
2026-05-06 17:17 35.51577 -13.28101 24522 ft 406 kts 232°
2026-05-06 17:17 35.49650 -13.30655 24936 ft 407 kts 232°
2026-05-06 17:18 35.47722 -13.33204 25340 ft 409 kts 232°
2026-05-06 17:18 35.45782 -13.35765 25703 ft 412 kts 232°
2026-05-06 17:18 35.43827 -13.38349 26086 ft 414 kts 232°
2026-05-06 17:18 35.41865 -13.40939 26439 ft 416 kts 233°
2026-05-06 17:19 35.39889 -13.43546 26786 ft 419 kts 232°
2026-05-06 17:19 35.37909 -13.46156 27138 ft 421 kts 233°
2026-05-06 17:19 35.35936 -13.48749 27477 ft 422 kts 233°
2026-05-06 17:19 35.33932 -13.51387 27794 ft 425 kts 233°
2026-05-06 17:20 35.31894 -13.54067 28103 ft 427 kts 233°
2026-05-06 17:20 35.29875 -13.56721 28426 ft 429 kts 233°
2026-05-06 17:20 35.27840 -13.59392 28752 ft 431 kts 233°
2026-05-06 17:20 35.25790 -13.62083 29033 ft 433 kts 233°
2026-05-06 17:21 35.23737 -13.64773 29306 ft 436 kts 233°
2026-05-06 17:21 35.21670 -13.67476 29574 ft 439 kts 233°
2026-05-06 17:21 35.19562 -13.70235 29846 ft 441 kts 233°
2026-05-06 17:21 35.17467 -13.72973 30118 ft 443 kts 233°
2026-05-06 17:22 35.15356 -13.75731 30422 ft 444 kts 233°
2026-05-06 17:22 35.13249 -13.78487 30706 ft 446 kts 233°
2026-05-06 17:22 35.11133 -13.81249 30980 ft 447 kts 233°
2026-05-06 17:22 35.09000 -13.84030 31240 ft 449 kts 233°
2026-05-06 17:23 35.06872 -13.86803 31471 ft 451 kts 233°
2026-05-06 17:23 35.04734 -13.89583 31723 ft 452 kts 233°
2026-05-06 17:23 35.02593 -13.92366 32029 ft 452 kts 233°
2026-05-06 17:23 35.00429 -13.95172 32378 ft 451 kts 233°
2026-05-06 17:24 34.98296 -13.97941 32704 ft 449 kts 233°
2026-05-06 17:24 34.96151 -14.00723 33045 ft 448 kts 233°
2026-05-06 17:24 34.94029 -14.03469 33362 ft 447 kts 233°
2026-05-06 17:24 34.91916 -14.06201 33676 ft 446 kts 233°
2026-05-06 17:25 34.89772 -14.08973 33979 ft 445 kts 233°
2026-05-06 17:25 34.87679 -14.11680 34263 ft 444 kts 233°
2026-05-06 17:25 34.85568 -14.14407 34480 ft 443 kts 233°
2026-05-06 17:25 34.83458 -14.17128 34706 ft 442 kts 233°
2026-05-06 17:26 34.81348 -14.19852 34886 ft 442 kts 233°
2026-05-06 17:26 34.79242 -14.22566 35004 ft 443 kts 233°
2026-05-06 17:26 34.77112 -14.25309 35025 ft 445 kts 233°
2026-05-06 17:27 34.72884 -14.30745 35016 ft 445 kts 233°
2026-05-06 17:27 34.68599 -14.36250 35027 ft 446 kts 233°
2026-05-06 17:28 34.64336 -14.41714 35015 ft 448 kts 234°
2026-05-06 17:28 34.60034 -14.47221 35018 ft 448 kts 233°
2026-05-06 17:29 34.25984 -14.90492 35031 ft 451 kts 233°
2026-05-06 17:29 33.56128 -15.77600 35088 ft 455 kts 233°
2026-05-06 17:30 33.24403 -16.14812 35018 ft 455 kts 230°
2026-05-06 17:30 33.22133 -16.17377 34714 ft 451 kts 231°
2026-05-06 17:30 33.19859 -16.19975 34134 ft 452 kts 231°
2026-05-06 17:30 33.17598 -16.22581 33445 ft 452 kts 231°
2026-05-06 17:31 33.15351 -16.25176 32727 ft 452 kts 232°
2026-05-06 17:31 33.13088 -16.27794 31909 ft 455 kts 232°
2026-05-06 17:31 33.10818 -16.30425 31055 ft 459 kts 232°
2026-05-06 17:31 33.08541 -16.33062 30108 ft 461 kts 232°
2026-05-06 17:32 33.06244 -16.35718 29089 ft 462 kts 232°
2026-05-06 17:32 33.03948 -16.38369 28561 ft 449 kts 231°
2026-05-06 17:32 33.01751 -16.40893 28194 ft 436 kts 232°
2026-05-06 17:32 32.99598 -16.43373 27813 ft 425 kts 232°
2026-05-06 17:33 32.97522 -16.45764 27582 ft 413 kts 232°
2026-05-06 17:33 32.95484 -16.48109 27244 ft 404 kts 232°
2026-05-06 17:33 32.93479 -16.50420 26747 ft 400 kts 232°
2026-05-06 17:33 32.91458 -16.52652 26224 ft 398 kts 230°
2026-05-06 17:34 32.89395 -16.54863 25681 ft 395 kts 230°
2026-05-06 17:34 32.87368 -16.57021 25099 ft 393 kts 230°
2026-05-06 17:34 32.85328 -16.59145 24563 ft 392 kts 226°
2026-05-06 17:34 32.83128 -16.61088 24014 ft 392 kts 223°
2026-05-06 17:35 32.80904 -16.62947 23472 ft 390 kts 222°
2026-05-06 17:35 32.78667 -16.64797 22958 ft 387 kts 221°
2026-05-06 17:35 32.76500 -16.66597 22496 ft 383 kts 221°
2026-05-06 17:36 32.72178 -16.70171 21558 ft 377 kts 217°
2026-05-06 17:36 32.69739 -16.71388 20893 ft 386 kts 195°
2026-05-06 17:36 32.67059 -16.71545 20326 ft 387 kts 173°
2026-05-06 17:36 32.64518 -16.70617 19863 ft 380 kts 150°
2026-05-06 17:37 32.62461 -16.68776 19403 ft 368 kts 128°
2026-05-06 17:37 32.61113 -16.66256 18914 ft 354 kts 105°
2026-05-06 17:37 32.60664 -16.63504 18404 ft 337 kts 82°
2026-05-06 17:37 32.61118 -16.60864 17895 ft 320 kts 59°
2026-05-06 17:38 32.62358 -16.58788 17397 ft 303 kts 35°
2026-05-06 17:38 32.64115 -16.57597 16896 ft 288 kts 12°
2026-05-06 17:38 32.66027 -16.57022 16420 ft 285 kts 14°
2026-05-06 17:38 32.67748 -16.55816 15876 ft 293 kts 39°
2026-05-06 17:39 32.69027 -16.53938 15455 ft 292 kts 45°
2026-05-06 17:39 32.70526 -16.52405 14929 ft 278 kts 18°
2026-05-06 17:39 32.72360 -16.52112 14439 ft 265 kts 346°
2026-05-06 17:39 32.73978 -16.53075 13936 ft 261 kts 320°
2026-05-06 17:40 32.75369 -16.54437 13491 ft 259 kts 326°
2026-05-06 17:40 32.76929 -16.55504 13048 ft 257 kts 333°
2026-05-06 17:40 32.78551 -16.56350 12596 ft 255 kts 337°
2026-05-06 17:40 32.80213 -16.57086 12161 ft 253 kts 339°
2026-05-06 17:41 32.81740 -16.58075 11714 ft 251 kts 322°
2026-05-06 17:41 32.83040 -16.59471 11226 ft 251 kts 317°
2026-05-06 17:41 32.84264 -16.60912 10783 ft 249 kts 316°
2026-05-06 17:41 32.85479 -16.62372 10260 ft 250 kts 316°
2026-05-06 17:42 32.86702 -16.63842 9725 ft 248 kts 316°
2026-05-06 17:42 32.87960 -16.65219 9244 ft 245 kts 329°
2026-05-06 17:42 32.89558 -16.65745 8703 ft 244 kts
2026-05-06 17:42 32.91184 -16.65267 8208 ft 246 kts 25°
2026-05-06 17:43 32.92532 -16.64000 7695 ft 249 kts 49°
2026-05-06 17:43 32.93306 -16.62173 7212 ft 253 kts 74°
2026-05-06 17:43 32.93333 -16.60071 6732 ft 256 kts 101°
2026-05-06 17:43 32.92563 -16.58178 6272 ft 258 kts 128°
2026-05-06 17:44 32.91165 -16.56902 5829 ft 257 kts 156°
2026-05-06 17:44 32.89428 -16.56508 5361 ft 257 kts 184°
2026-05-06 17:44 32.87751 -16.57091 5016 ft 250 kts 211°
2026-05-06 17:44 32.86313 -16.58245 4654 ft 247 kts 217°
2026-05-06 17:45 32.84917 -16.59453 4272 ft 247 kts 217°
2026-05-06 17:45 32.83535 -16.60654 3890 ft 245 kts 219°
2026-05-06 17:45 32.82443 -16.62144 3504 ft 241 kts 248°
2026-05-06 17:45 32.82149 -16.64049 3142 ft 233 kts 281°
2026-05-06 17:46 32.82774 -16.65780 3037 ft 238 kts 313°
2026-05-06 17:46 32.84135 -16.66900 3017 ft 239 kts 344°
2026-05-06 17:46 32.85786 -16.67007 2998 ft 238 kts 14°
2026-05-06 17:46 32.87217 -16.66084 2995 ft 239 kts 44°
2026-05-06 17:47 32.88045 -16.64390 2987 ft 242 kts 74°
2026-05-06 17:47 32.88020 -16.62394 2991 ft 248 kts 104°
2026-05-06 17:47 32.87123 -16.60630 2992 ft 253 kts 134°
2026-05-06 17:47 32.85588 -16.59610 2980 ft 259 kts 164°
2026-05-06 17:48 32.83787 -16.59648 2978 ft 261 kts 197°
2026-05-06 17:48 32.82168 -16.60725 3003 ft 270 kts 218°
2026-05-06 17:48 32.80673 -16.62074 2995 ft 271 kts 218°
2026-05-06 17:48 32.79166 -16.63430 2984 ft 271 kts 218°
2026-05-06 17:49 32.77652 -16.64784 2986 ft 272 kts 217°
2026-05-06 17:49 32.76132 -16.66137 2995 ft 272 kts 218°
2026-05-06 17:49 32.74612 -16.67485 2993 ft 272 kts 218°
2026-05-06 17:49 32.73117 -16.68810 2985 ft 272 kts 218°
2026-05-06 17:50 32.71581 -16.70170 2985 ft 272 kts 218°
2026-05-06 17:50 32.70069 -16.71509 2987 ft 272 kts 218°
2026-05-06 17:50 32.68552 -16.72852 2989 ft 271 kts 217°
2026-05-06 17:50 32.67017 -16.74208 2986 ft 271 kts 217°
2026-05-06 17:51 32.65514 -16.75536 2984 ft 271 kts 217°
2026-05-06 17:51 32.63989 -16.76883 2768 ft 272 kts 217°
2026-05-06 17:51 32.62472 -16.78225 2472 ft 269 kts 217°
2026-05-06 17:51 32.61134 -16.79693 2166 ft 260 kts 239°
2026-05-06 17:52 32.60699 -16.81655 1941 ft 240 kts 282°
2026-05-06 17:52 32.61440 -16.83262 1763 ft 213 kts 330°
2026-05-06 17:52 32.62773 -16.83626 1855 ft 198 kts 14°
2026-05-06 17:52 32.64024 -16.82966 1591 ft 196 kts 33°
2026-05-06 17:53 32.65080 -16.82097 1516 ft 171 kts 33°
2026-05-06 17:53 32.66027 -16.81302 1153 ft 165 kts 34°
2026-05-06 17:53 32.66899 -16.80468 799 ft 157 kts 36°
2026-05-06 17:53 32.67699 -16.79710 586 ft 140 kts 34°
2026-05-06 17:54 32.68428 -16.78991 336 ft 132 kts 36°
2026-05-06 17:54 32.69089 -16.78255 177 ft 130 kts 38°
2026-05-06 17:54 32.69644 -16.77617 213 ft 72 kts 43°
2026-05-06 17:54 32.69874 -16.77346 211 ft 36 kts 44°
2026-05-06 17:55 32.69932 -16.77183 190 ft 19 kts 162°
2026-05-06 17:55 32.69811 -16.77210 178 ft 12 kts 230°
2026-05-06 17:55 32.69755 -16.77278 182 ft 12 kts 225°
2026-05-06 17:55 32.69676 -16.77371 184 ft 18 kts 226°
2026-05-06 17:56 32.69580 -16.77492 188 ft 19 kts 227°
2026-05-06 17:56 32.69486 -16.77610 188 ft 20 kts 226°
2026-05-06 17:56 32.69415 -16.77698 186 ft 7 kts 226°
2026-05-06 17:56 32.69365 -16.77756 181 ft 9 kts 216°
2026-05-06 17:57 32.69325 -16.77740 174 ft 5 kts 139°